Zurück zum Katalog

STARLINK-34407

AktivKommunikationVLEO
NORAD 64347·PAYLOAD·🇺🇸 United States

Gestartet Jun 13, 2025 von Vandenberg Space Force Base

Loading…

Nächste Überflüge (nächste 24 Stunden)

TLE

AktuellSource: CelesTrak SupGP

Epoche: Sep 15, 2026, 02:48 UTC

1 64347C 25126D   26258.11715278 -.00021205  00000+0 -73758-3 0  2587
2 64347  69.9998 275.2857 0003648 267.0521 152.0529 15.29591549    11

Verfolge STARLINK-34407 in Echtzeit mit AllMySat

Download on the App Store